EA1IOK-13 Weather Reports


time (UTC)temp
C
wind
direction
speed
KPH
gust
KPH
rain 1hr
cm
rain 24hr
cm
rain mn
cm
humidity
%
barometer
mb
20260506233549 8 13 1.6 3.2 0.00 0.00 0.00 90 1012.0
20260506230759 8 19 4.8 8.0 0.00 0.00 0.00 90 1012.1
20260506230549 8 19 4.8 8.0 0.00 0.00 0.00 90 1012.1
20260506225051 8 17 3.2 4.8 0.00 0.00 0.00 89 1012.2
20260506223548 8 22 4.8 8.0 0.00 0.00 0.00 89 1012.1
20260506222054 9 17 4.8 8.0 0.00 0.00 0.00 88 1012.1
20260506220548 9 5 3.2 4.8 0.00 0.00 0.00 88 1012.1
20260506215051 9 355 1.6 4.8 0.00 0.00 0.00 87 1012.1
20260506213549 9 341 4.8 9.7 0.00 0.00 0.00 87 1012.2
20260506210551 10 332 1.6 3.2 0.00 0.00 0.00 86 1012.3
20260506205051 10 335 3.2 8.0 0.00 0.00 0.00 85 1012.3
20260506203547 11 333 4.8 4.8 0.00 0.00 0.00 84 1012.1
20260506202234 11 328 8.0 9.7 0.00 0.00 0.00 84 1011.9
20260506202049 11 328 8.0 9.7 0.00 0.00 0.00 84 1011.9
20260506200551 11 321 4.8 4.8 0.00 0.00 0.00 83 1011.8
20260506193550 11 324 3.2 4.8 0.00 0.00 0.00 80 1011.6
20260506192233 12 334 4.8 12.9 0.00 0.00 0.00 78 1011.5
20260506192050 12 334 4.8 12.9 0.00 0.00 0.00 78 1011.5
20260506190552 12 336 3.2 4.8 0.00 0.00 0.00 77 1011.6
20260506183937 13 338 9.7 16.1 0.00 0.00 0.00 75 1011.5
20260506183550 13 338 9.7 16.1 0.00 0.00 0.00 75 1011.5
20260506180550 15 1 8.0 11.3 0.00 0.00 0.00 72 1011.4
20260506175132 15 344 9.7 14.5 0.00 0.00 0.00 72 1011.4
20260506175050 15 344 9.7 14.5 0.00 0.00 0.00 72 1011.4
20260506173549 15 352 14.5 22.5 0.00 0.00 0.00 73 1011.4
20260506172235 16 7 12.9 14.5 0.00 0.00 0.00 73 1011.4
20260506172052 16 7 12.9 14.5 0.00 0.00 0.00 73 1011.4
20260506170549 15 355 8.0 12.9 0.00 0.00 0.00 75 1011.5
20260506165051 15 336 16.1 22.5 0.00 0.00 0.00 75 1011.6
20260506163936 16 5 3.2 4.8 0.00 0.00 0.00 70 1011.5
20260506163550 16 5 3.2 4.8 0.00 0.00 0.00 70 1011.5
20260506160550 18 219 14.5 20.9 0.00 0.00 0.00 60 1011.3
20260506155129 17 352 3.2 4.8 0.00 0.00 0.00 59 1011.4
20260506155050 17 352 3.2 4.8 0.00 0.00 0.00 59 1011.4
20260506153549 16 0 3.2 4.8 0.00 0.00 0.00 62 1011.6
20260506150550 17 336 9.7 14.5 0.00 0.00 0.00 62 1011.9
20260506143937 17 257 3.2 4.8 0.00 0.00 0.00 59 1012.3
20260506143549 17 257 3.2 4.8 0.00 0.00 0.00 59 1012.3
20260506140548 15 319 4.8 4.8 0.00 0.00 0.00 69 1012.8
20260506133551 16 287 4.8 11.3 0.00 0.00 0.00 67 1013.3
20260506123740 16 298 9.7 16.1 0.00 0.03 0.00 68 1013.8
20260506123550 16 298 9.7 16.1 0.00 0.03 0.00 68 1013.8
20260506122239 15 338 3.2 8.0 0.00 0.03 0.00 73 1014.1
20260506122048 15 338 3.2 8.0 0.00 0.03 0.00 73 1014.1
20260506120549 14 319 3.2 4.8 0.00 0.03 0.00 71 1014.3
20260506112121 -17 33 3.2 0.0 0.00 0.00 0.00
20260506112048 15 33 3.2 11.3 0.00 0.05 0.00 74 1014.7
20260506110551 13 173 0.0 0.0 0.00 0.05 0.00 81 1015.0
20260506103737 12 225 3.2 4.8 0.00 0.05 0.00 82 1015.1
20260506103549 12 225 3.2 4.8 0.00 0.05 0.00 82 1015.1
20260506102228 11 218 1.6 3.2 0.00 0.05 0.00 85 1015.2
20260506102050 11 218 1.6 3.2 0.00 0.05 0.00 85 1015.2
20260506100550 11 250 3.2 8.0 0.00 0.05 0.00 83 1015.2
20260506092051 11 163 8.0 11.3 0.00 0.05 0.00 86 1015.2
20260506090549 11 213 4.8 4.8 0.00 0.05 0.00 90 1015.2
20260506083550 10 179 4.8 4.8 0.00 0.05 0.00 93 1015.1
20260506082057 9 217 3.2 4.8 0.00 0.05 0.00 93 1015.2
20260506070550 8 30 1.6 4.8 0.00 0.05 0.00 96 1015.4
20260506060548 7 348 4.8 8.0 0.00 0.05 0.00 98 1015.2
20260506050549 6 4 3.2 4.8 0.00 0.05 0.00 98 1014.9
20260506045049 6 347 8.0 12.9 0.00 0.05 0.00 97 1015.1
20260506043933 6 35 3.2 4.8 0.00 0.05 0.00 97 1015.0
20260506043549 6 35 3.2 4.8 0.00 0.05 0.00 97 1015.0
20260506040549 7 352 1.6 3.2 0.00 0.05 0.00 98 1015.0
20260506033650 5 0 3.2 8.0 0.00 0.05 0.00 97 1015.1
20260506033548 5 0 3.2 8.0 0.00 0.05 0.00 97 1015.1
20260506030549 6 69 8.0 4.8 0.00 0.05 0.00 96 1015.3
20260506023938 6 16 8.0 8.0 0.00 0.05 0.00 96 1015.3
20260506023549 6 16 8.0 8.0 0.00 0.05 0.00 96 1015.3
20260506020701 6 355 4.8 8.0 0.00 0.05 0.00 96 1015.5
20260506020550 6 355 4.8 8.0 0.00 0.05 0.00 96 1015.5
20260506013941 6 327 3.2 4.8 0.00 0.05 0.00 94 1015.8
20260506013552 6 327 3.2 4.8 0.00 0.05 0.00 94 1015.8
20260506003937 8 5 3.2 4.8 0.00 0.05 0.00 94 1016.1
20260506003549 8 5 3.2 4.8 0.00 0.05 0.00 94 1016.1
20260506000549 8 20 3.2 4.8 0.00 0.05 0.00 94 1016.2